Location: Taipo
(41.0000°S, 175.9500°E)
Time: 03:13:52
(UTC+00:00)

NOAA 12 - Pass Details

Date: 18 April 2024
Orbit: 793 x 815 km, 98.6° (Epoch: 22 May)

Event Time Altitude Azimuth Distance (km) Brightness Sun altitude
Rises 16:27:22 0° 21° (NNE) 3,288 7.4 -27.6°
Reaches altitude 10° 16:29:41 10° 23° (NNE) 2,368 6.7 -27.2°
Maximum altitude 16:34:54 73° 106° (ESE) 847 4.2 -26.2°
Drops below altitude 10° 16:40:12 10° 189° (S) 2,408 6.5 -25.2°
Sets 16:42:34 0° 191° (S) 3,349 7.3 -24.8°
